Flag for Slovakia Weather past 2 weeks in Bratislava, Slovakia

Now
45 °F

Light rain. Passing clouds.


Feels Like: 38 °F
Forecast: 42 / 52 °F
Wind: 15 mph from Northwest

Location: Bratislava Ivanka

Current Time: Oct 23, 2014 at 12:29:54 AM

Latest Report: Oct 23, 2014 at 12:00 AM


Visibility: N/A

Pressure: 29.71 "Hg

Humidity: 81%

Dew point: 39 °F

Location of BratislavaLocation

Historic Weather in Bratislava — Graph

°F

Bratislava temperature yesterday

Maximum temperature yesterday: 59 °F (at 12:00 AM)
Minimum temperature yesterday: 45 °F (at 7:30 PM)
Average temperature yesterday: 49 °F

Past Weeks' High & Low Weather Summary

 TemperatureHumidityPressure
High75 °F (Oct 9, 3:00 PM)100% (Oct 14, 5:30 AM)30.33 "Hg (Oct 14, 5:30 AM)
Low45 °F (Oct 22, 7:30 PM)50% (Oct 16, 1:30 PM)29.59 "Hg (Oct 22, 1:30 AM)
Average59 °F80%29.96 "Hg
* Reported Oct 7 11:00 PM — Oct 22 11:30 PM, Bratislava, Weather by CustomWeather, © 2014

Note: Actual official high and low records may vary slightly from our data, if they occured in-between our weather recording intervals... More about our weather records

Advertising

Bratislava weather history for previous 24 hours

 ConditionsComfort  
Time TempWeatherWind HumidityBarometerVisibility
11:30 PM
Oct 22
45 °FLight rain. Partly cloudy.17 mph81%29.74 "HgN/A
11:00 PM45 °FLight rain. Partly cloudy.14 mph81%29.74 "HgN/A
10:30 PM45 °FLight rain. Partly cloudy.16 mph81%29.74 "HgN/A
10:00 PM45 °FLight rain. Passing clouds.13 mph81%29.74 "HgN/A
9:30 PM45 °FLight rain. Passing clouds.10 mph87%29.74 "HgN/A
9:00 PM45 °FLight rain. Passing clouds.12 mph87%29.74 "HgN/A
8:30 PM45 °FLight rain. Passing clouds.6 mph87%29.74 "HgN/A
8:00 PM45 °FLight rain. Passing clouds.7 mph87%29.74 "HgN/A
7:30 PM45 °FLight rain. Partly cloudy.12 mph87%29.74 "HgN/A
7:00 PM46 °FLight rain. Passing clouds.14 mph82%29.74 "HgN/A
6:30 PM46 °FLight rain. Broken clouds.13 mph76%29.74 "HgN/A
6:00 PM46 °FLight rain. Broken clouds.18 mph76%29.71 "HgN/A
5:30 PM46 °FLight rain. Broken clouds.16 mph76%29.71 "HgN/A
5:00 PM48 °FLight rain. Broken clouds.14 mph76%29.71 "HgN/A
4:30 PM48 °FLight rain. Broken clouds.18 mph76%29.71 "HgN/A
4:00 PM48 °FLight rain. Partly sunny.8 mph76%29.71 "HgN/A
3:30 PM48 °FLight rain. Broken clouds.12 mph76%29.71 "HgN/A
3:00 PM48 °FLight rain. Broken clouds.12 mph76%29.71 "HgN/A
2:30 PM48 °FLight rain. More clouds than sun.18 mph76%29.68 "HgN/A
2:00 PM48 °FLight rain. More clouds than sun.17 mph76%29.68 "HgN/A
1:30 PM48 °FLight rain. Broken clouds.14 mph76%29.68 "HgN/A
1:00 PM48 °FLight rain. Cloudy.16 mph71%29.68 "HgN/A
12:30 PM48 °FLight rain. Broken clouds.12 mph71%29.71 "HgN/A
12:00 PM48 °FLight rain. Partly sunny.13 mph71%29.71 "HgN/A
11:30 AM50 °FBroken clouds.14 mph67%29.71 "HgN/A
11:00 AM50 °FPartly sunny.17 mph67%29.71 "HgN/A
10:30 AM48 °FLight rain. Partly sunny.22 mph71%29.71 "HgN/A
10:00 AM48 °FLight rain. Overcast.14 mph76%29.71 "HgN/A
9:30 AM48 °FLight rain. Overcast.16 mph76%29.71 "HgN/A
9:00 AM48 °FLight rain. Mostly cloudy.15 mph76%29.71 "HgN/A
8:30 AM46 °FLight rain. Mostly cloudy.13 mph82%29.71 "HgN/A
8:00 AM48 °FLight rain. Mostly cloudy.16 mph76%29.71 "HgN/A
7:30 AM48 °FRain. Mostly cloudy.16 mph76%29.71 "Hg5 mi
7:00 AM48 °FLight rain. Mostly cloudy.14 mph76%29.71 "HgN/A
6:30 AM48 °FLight rain. Passing clouds.21 mph76%29.71 "HgN/A
6:00 AM50 °FLight rain. Passing clouds.21 mph67%29.71 "HgN/A
5:30 AM52 °FLight rain. Passing clouds.12 mph67%29.71 "HgN/A
5:00 AM52 °FPassing clouds.18 mph67%29.68 "HgN/A
4:30 AM50 °FPartly cloudy.8 mph76%29.68 "HgN/A
4:00 AM50 °FPassing clouds.15 mph76%29.62 "HgN/A
3:30 AM50 °FLight rain. Mostly cloudy.22 mph82%29.65 "HgN/A
3:00 AM50 °FLight rain. Passing clouds.23 mph88%29.65 "HgN/A
2:30 AM52 °FRain showers. Passing clouds.23 mph82%29.65 "Hg3 mi
2:00 AM52 °FSprinkles. Passing clouds.22 mph88%29.65 "Hg4 mi
1:30 AM57 °FLight rain. Passing clouds.14 mph94%29.59 "HgN/A
1:00 AM59 °FLight rain. Partly cloudy.10 mph88%29.62 "HgN/A
12:30 AM59 °FPassing clouds.12 mph88%29.62 "HgN/A
12:00 AM59 °FLight rain. Passing clouds.8 mph88%29.62 "HgN/A
Weather by CustomWeather, © 2014

See weather overviewHow to use our weather pages